Location: Ffm
(50.0000°N, 8.5000°E)
Time: 10:24:21
(UTC+01:00)

Envisat - Pass Details

Date: 30 October 2020
Orbit: 764 x 766 km, 98.1° (Epoch: 03 December)

Event Time Altitude Azimuth Distance (km) Brightness Sun altitude
Rises 19:06:16 0° 220° (SW) 3,223 6.8 -19.8°
Reaches altitude 10° 19:09:58 10° 248° (WSW) 2,303 6.4 -20.4°
Maximum altitude 19:12:13 13° 275° (W) 2,112 6.4 -20.8°
Drops below altitude 10° 19:14:29 10° 301° (WNW) 2,311 6.4 -21.1°
Sets 19:18:13 0° 330° (NNW) 3,244 6.7 -21.7°
